Regional Weather Roundup
Issued by NWS Spokane, WA

Home | Current Version | Previous Version | Text Only | Print | Product List | Glossary On
Versions: 1 2 3 4 5 6 7 8 9 10 11 12 13 14 15 16 17 18 19 20 21 22 23 24 25 26 27 28 29 30 31 32 33 34 35 36 37 38 39 40 41 42 43 44 45 46 47 48 49 50
000
NZUS01 KOTX 190210
RWROTX

Eastern Washington/Northern Idaho Roundup
National Weather Service, Spokane WA
600 PM PST THU JAN 18 2018

Note: "fair" indicated few or no clouds below 12,000 feet with no
significant weather and/or obstructions to visibility.

...Northeast Washington and Northern Idaho Panhandle...

CITY           SKY/WX    TMP DP  RH WIND       PRES   REMARKS
Spokane Intl   CLOUDY    36  35  96 S10       29.79S
Spokane Downto CLOUDY    39  35  86 SW5       29.81S
Coeur d Alene  CLOUDY    38  34  85 W3        29.80S
Deer Park      CLOUDY    36  34  92 SW6       29.79F
Sandpoint      CLOUDY    37  36  93 S5        29.78S
Bonners Ferry  FAIR      37  36  93 SW9       29.75F

...Southeast Washington and southern Idaho Panhandle...

CITY           SKY/WX    TMP DP  RH WIND       PRES   REMARKS
Walla Walla    LGT RAIN  45  36  70 S13       29.81R
Pullman/Moscow CLOUDY    37  33  85 SE10      29.81F
Lewiston       LGT RAIN  40  38  93 S6        29.86R
Lowell           N/A     36  36 100 CALM      29.88F
Grangeville    CLOUDY    32  32 100 CALM      29.82S

...Columbia Basin...

CITY           SKY/WX    TMP DP  RH WIND       PRES   REMARKS
Ephrata        PTCLDY    38  33  82 CALM      29.77F
Moses Lake     PTCLDY    38  36  92 S5        29.78F
Pasco          PTCLDY    42  36  79 SE10      29.82S
Richland       PTCLDY    45  37  75 E8        29.82R
Hermiston      MOCLDY    43  39  86 SE8       29.81S
Pendleton      CLOUDY    40  36  86 S6        29.80S

...East Slopes Cascades...

CITY           SKY/WX    TMP DP  RH WIND       PRES   REMARKS
The Dalles     CLOUDY    43  37  79 W3        29.85F
Yakima         CLOUDY    47  36  65 S13       29.77S
Ellensburg     CLOUDY    44  34  67 SE5       29.74S
Stampede Pass  CLOUDY    32  31  96 CALM      29.70F
Wenatchee      CLOUDY    39  36  89 CALM      29.76S
Omak           PTCLDY    39  33  79 S9        29.77R
Sunnyside      LGT RAIN  44  37  75 CALM      29.81S

...Southern British Columbia...

CITY           SKY/WX    TMP DP  RH WIND       PRES   REMARKS
Penticton      PTCLDY    41  30  65 S15G28    29.70R
Cranbrook      PTCLDY    34  25  69 SW6       29.66F WCI  29
Osoyoos          N/A     39  32  75 SE6         N/A

...Western Montana...

CITY           SKY/WX    TMP DP  RH WIND       PRES   REMARKS
Kalispell      CLOUDY    36  33  89 CALM      29.73S
Missoula       LGT RAIN  36  33  89 NW7       29.78F

...Neighboring Cities...

CITY           SKY/WX    TMP DP  RH WIND       PRES   REMARKS
Seattle        CLOUDY    43  39  86 SE10      29.79S
Portland       CLOUDY    44  40  85 SE7       29.87S
Boise          LGT RAIN  42  38  85 N12       29.86S FOG
Great Falls    CLOUDY    40  32  73 S13       29.69S
Calgary        PTCLDY    34  25  69 SW7       29.46F WCI  28



USA.gov is the U.S. government's official web portal to all federal, state and local government web resources and services.